Monroe, NC

7:55 PM EST on December 16, 2017 (GMT -0500)
Monroe

Weather History for KEQY - January, 2013

Change the Weather History Date:

Sunday, January 27, 2013

  Actual Average (KCLT) Record (KCLT)
Temperature  
Mean Temperature 36 °F -  
Max Temperature 44 °F 50 °F 75 °F (1890)
Min Temperature 28 °F 29 °F 6 °F (1940)
Degree Days  
Heating Degree Days 29    
Moisture  
Dew Point 27 °F    
Average Humidity 76    
Maximum Humidity 100    
Minimum Humidity 49    
Precipitation  
Precipitation 0.00 in - - ()
Sea Level Pressure  
Sea Level Pressure 30.51 in    
Wind  
Wind Speed 5 mph (NE)    
Max Wind Speed 9 mph    
Max Gust Speed -    
Visibility 7 miles    
Events      
Averages and records for this station are not official NWS values.
T = Trace of Precipitation, MM = Missing Value Source: NWS Daily Summary

Daily Weather History Graph

Daily Weather History Graph

Search for Another Location

Airport or City:

Trip Planner

Search our weather history database for the weather conditions in past years. The results will help you decide how hot, cold, wet, or windy it might be!

Date:

Astronomy

Jan. 27, 2013 Rise Set
Actual Time 7:24 AM EST 5:46 PM EST
Civil Twilight 6:57 AM EST 6:13 PM EST
Nautical Twilight 6:27 AM EST 6:43 PM EST
Astronomical Twilight 5:57 AM EST 7:13 PM EST
Moon 6:35 PM EST (1/27) 7:19 AM EST (1/27)
Length of Visible Light 11h 15m
Length of Day
10h 21m
Full, 100% of the Moon is Illuminated
Jan 27
Full
Feb 3
Last Quarter
Feb 10
New
Feb 17
First Quarter
Feb 25
Full

Hourly Weather History & Observations

Time (EST) Temp. Windchill Dew Point Humidity Pressure Visibility Wind Dir Wind Speed Gust Speed Precip Events Conditions
12:53 AM 28.9 °F 21.9 °F 27.0 °F 92% 30.43 in 2.5 mi NE 6.9 mph - N/A   Clear
1:46 AM 30.2 °F 23.4 °F 30.2 °F 100% 30.38 in 3.0 mi NE 6.9 mph - N/A   Clear
1:53 AM 30.0 °F 24.1 °F 28.9 °F 96% 30.45 in 3.0 mi NE 5.8 mph - N/A   Clear
2:37 AM 30.2 °F 22.6 °F 28.4 °F 93% 30.40 in 3.0 mi NE 8.1 mph - N/A   Scattered Clouds
2:46 AM 30.2 °F 22.6 °F 28.4 °F 93% 30.40 in 2.0 mi NE 8.1 mph - N/A   Mostly Cloudy
2:53 AM 30.0 °F 21.7 °F 28.9 °F 96% 30.47 in 2.0 mi NE 9.2 mph - N/A   Mostly Cloudy
3:46 AM 30.2 °F 21.9 °F 28.4 °F 93% 30.41 in 3.0 mi NE 9.2 mph - N/A   Overcast
3:53 AM 30.9 °F 22.8 °F 28.9 °F 92% 30.48 in 3.0 mi NE 9.2 mph - N/A   Overcast
4:12 AM 30.2 °F 23.4 °F 28.4 °F 93% 30.41 in 4.0 mi ENE 6.9 mph - N/A   Overcast
4:51 AM 30.2 °F 25.4 °F 26.6 °F 86% 30.42 in 8.0 mi ENE 4.6 mph - N/A   Mostly Cloudy
4:53 AM 30.9 °F 26.2 °F 27.0 °F 85% 30.48 in 8.0 mi ENE 4.6 mph - N/A   Mostly Cloudy
5:53 AM 30.0 °F 26.5 °F 26.1 °F 85% 30.51 in 7.0 mi ENE 3.5 mph - N/A   Overcast
6:15 AM 28.4 °F - 26.6 °F 93% 30.45 in 7.0 mi Calm Calm - N/A   Scattered Clouds
6:53 AM 28.0 °F 24.2 °F 26.1 °F 92% 30.54 in 6.0 mi NE 3.5 mph - N/A   Clear
7:53 AM 28.0 °F 24.2 °F 25.0 °F 88% 30.56 in 5.0 mi NE 3.5 mph - N/A   Clear
8:53 AM 30.9 °F 24.3 °F 25.0 °F 79% 30.59 in 9.0 mi NE 6.9 mph - N/A   Clear
9:53 AM 33.1 °F 26.9 °F 26.1 °F 75% 30.61 in 9.0 mi NE 6.9 mph - N/A   Clear
10:53 AM 36.0 °F 33.3 °F 26.1 °F 67% 30.62 in 10.0 mi Variable 3.5 mph - N/A   Clear
11:53 AM 37.9 °F 33.5 °F 25.0 °F 60% 30.60 in 10.0 mi East 5.8 mph - N/A   Clear
12:53 PM 42.1 °F 39.2 °F 25.0 °F 51% 30.59 in 10.0 mi Variable 4.6 mph - N/A   Clear
1:53 PM 42.1 °F - 24.1 °F 49% 30.56 in 10.0 mi Calm Calm - N/A   Clear
2:53 PM 43.0 °F - 25.0 °F 49% 30.54 in 10.0 mi Calm Calm - N/A   Clear
3:53 PM 44.1 °F 42.5 °F 26.1 °F 49% 30.53 in 10.0 mi NE 3.5 mph - N/A   Clear
4:53 PM 44.1 °F 41.5 °F 27.0 °F 51% 30.54 in 10.0 mi NE 4.6 mph - N/A   Clear
5:53 PM 42.1 °F - 27.0 °F 55% 30.55 in 10.0 mi Calm Calm - N/A   Clear
6:53 PM 39.9 °F - 28.0 °F 63% 30.57 in 10.0 mi Calm Calm - N/A   Mostly Cloudy
7:53 PM 39.0 °F - 27.0 °F 62% 30.56 in 10.0 mi Calm Calm - N/A   Overcast
8:53 PM 39.0 °F - 28.0 °F 65% 30.56 in 10.0 mi Calm Calm - N/A   Overcast
9:53 PM 37.9 °F - 28.0 °F 68% 30.56 in 10.0 mi Calm Calm - N/A   Overcast
10:53 PM 37.9 °F - 28.0 °F 68% 30.55 in 9.0 mi Calm Calm - N/A   Overcast
11:53 PM 37.0 °F - 27.0 °F 67% 30.54 in 9.0 mi Calm Calm - N/A   Overcast